Home   Weather   Jubail   Past weeks
Flag for Saudi Arabia

Past Weather in Jubail, Saudi Arabia — Yesterday and Last 2 Weeks

Now
81 °F

Clear.


Feels Like: 82 °F
Forecast: 99 / 73 °F
Wind: 9 mph from Southeast

Location: King Fahd International Airport

Current Time: Oct 24, 2019 at 12:08:55 am

Latest Report: Oct 23, 2019 at 11:00 pm


Visibility: 10 mi

Pressure: 29.83 "Hg

Humidity: 58%

Dew Point: 64 °F

Location of JubailLocation

Past Weather in Jubail — Graph

°F

Jubail Temperature Yesterday

Maximum temperature yesterday: 102 °F (at 1:00 pm)
Minimum temperature yesterday: 73 °F (at 6:00 am)
Average temperature yesterday: 87 °F

High & Low Weather Summary for the Past Weeks

 TemperatureHumidityPressure
High106 °F (Oct 10, 2:00 pm)89% (Oct 13, 6:10 am)30.01 "Hg (Oct 13, 6:10 am)
Low73 °F (Oct 19, 3:00 am)11% (Oct 10, 3:00 pm)29.74 "Hg (Oct 11, 2:00 pm)
Average87 °F53%29.88 "Hg
* Reported Oct 8 11:00 pm — Oct 23 11:00 pm, Jubail. Weather by CustomWeather, © 2019

Note: Actual official high and low records may vary slightly from our data, if they occured in-between our weather recording intervals... More about our weather records

Advertising

Jubail Weather History for the Previous 24 Hours

Scroll right to see more
 ConditionsComfort  
Time TempWeatherWind HumidityBarometerVisibility
11:00 pm
Wed, Oct 23
81 °FClear.9 mph58%29.83 "Hg10 mi
10:00 pm82 °FClear.5 mph51%29.83 "Hg10 mi
9:00 pm84 °FClear.7 mph43%29.83 "Hg10 mi
8:00 pm86 °FClear.8 mph43%29.83 "Hg10 mi
7:00 pm88 °FClear.7 mph38%29.83 "Hg10 mi
6:00 pm90 °FClear.8 mph41%29.80 "Hg10 mi
5:00 pm93 °FSunny.14 mph32%29.80 "Hg10 mi
4:00 pm99 °FSunny.18 mph24%29.77 "Hg10 mi
3:00 pm102 °FSunny.No wind11%29.77 "Hg10 mi
2:00 pm102 °FSunny.5 mph11%29.80 "Hg10 mi
1:00 pm102 °FSunny.6 mph15%29.80 "Hg10 mi
12:00 pm99 °FSunny.6 mph18%29.83 "Hg10 mi
11:00 am97 °FSunny.8 mph25%29.86 "Hg10 mi
10:00 am93 °FSunny.8 mph30%29.89 "Hg10 mi
9:00 am88 °FSunny.6 mph40%29.89 "Hg10 mi
8:00 am81 °FSunny.8 mph54%29.89 "Hg10 mi
7:00 am75 °FSunny.7 mph54%29.86 "Hg10 mi
6:00 am73 °FClear.9 mph61%29.83 "Hg5 mi
5:00 am75 °FClear.9 mph54%29.83 "Hg10 mi
4:00 am77 °FClear.8 mph61%29.80 "Hg10 mi
3:00 am77 °FClear.7 mph65%29.83 "Hg10 mi
2:00 am77 °FClear.5 mph74%29.83 "Hg10 mi
1:00 am77 °FClear.6 mph69%29.83 "Hg10 mi
12:00 am79 °FClear.5 mph65%29.83 "Hg10 mi
Weather by CustomWeather, © 2019

See weather overview